This demonstration page uses our WeatherBlox Daily Observations layout. Learn more.

Left ArrowRight Arrow

39.51506, -84.39828

Hourly Observations for May 4, 2015

Temp ( °F °C ) Dew Point ( °F °C ) Humidity (%) Winds ( mph kmh ) Pressure ( in mb ) Visibility ( mi km ) Precip ( " mm )
12:15 am 00:15 Clear 57 13.8 50 9.9 78 78 Calm 30.09 1019 10 16 0.00 0.00
12:35 am 00:35 Clear 57 13.8 49 9.6 76 76 Calm 30.09 1019 10 16 0.00 0.00
12:55 am 00:55 Clear 57 13.8 51 10.5 81 81 Calm 30.09 1019 10 16 0.00 0.00
1:15 am 01:15 Clear 56 13.3 49 9.7 79 79 Calm 30.09 1019 10 16 0.00 0.00
1:35 am 01:35 Clear 55 12.5 49 9.3 81 81 Calm 30.12 1020 10 16 0.00 0.00
1:55 am 01:55 Clear 55 12.5 49 9.5 82 82 Calm 30.12 1020 10 16 0.00 0.00
2:15 am 02:15 Clear 55 12.5 49 9.5 82 82 Calm 30.12 1020 10 16 0.00 0.00
2:35 am 02:35 Clear 55 12.5 49 9.7 83 83 Calm 30.12 1020 10 16 0.00 0.00
2:55 am 02:55 Clear 55 12.5 49 9.7 83 83 Calm 30.12 1020 10 16 0.00 0.00
3:15 am 03:15 Clear 55 12.5 50 9.8 84 84 Calm 30.12 1020 10 16 0.00 0.00
3:35 am 03:35 Clear 55 12.5 50 10 85 85 Calm 30.12 1020 10 16 0.00 0.00
3:55 am 03:55 Partly Cloudy 55 12.5 50 10 85 85 Calm 30.12 1020 10 16 0.00 0.00
4:15 am 04:15 Partly Cloudy 55 12.5 50 10 85 85 Calm 30.12 1020 10 16 0.00 0.00
4:35 am 04:35 Partly Cloudy 55 12.5 50 10 85 85 Calm 30.12 1020 10 16 0.00 0.00
4:55 am 04:55 Partly Cloudy 55 12.5 50 10 85 85 Calm 30.12 1020 10 16 0.00 0.00
5:15 am 05:15 Clear 52 11.2 48 8.9 86 86 Calm 30.12 1020 10 16 0.00 0.00
5:35 am 05:35 Clear 52 11 48 8.8 86 86 Calm 30.12 1020 10 16 0.00 0.00
5:55 am 05:55 Partly Cloudy 52 11 48 8.8 86 86 Calm 30.12 1020 10 16 0.00 0.00
6:15 am 06:15 Partly Cloudy 52 11 48 8.9 87 87 Calm 30.12 1020 10 16 0.00 0.00
6:35 am 06:35 Sunny 52 11 48 9 88 88 Calm 30.15 1021 10 16 0.00 0.00
6:55 am 06:55 Sunny 52 11 48 9 88 88 Calm 30.15 1021 7 11 0.00 0.00
7:15 am 07:15 Sunny 52 11 48 9.1 88 88 Calm 30.15 1021 10 16 0.00 0.00
7:35 am 07:35 Sunny 55 12.5 50 10.2 86 86 Calm 30.15 1021 10 16 0.00 0.00
7:55 am 07:55 Sunny 55 12.5 50 10.2 86 86 Calm 30.15 1021 10 16 0.00 0.00
8:15 am 08:15 Sunny 59 15.1 54 12.1 82 82 Calm 30.15 1021 10 16 0.00 0.00
8:35 am 08:35 Sunny 62 16.4 53 11.6 73 73 Calm 30.18 1022 10 16 0.00 0.00
8:55 am 08:55 Sunny 64 18 52 11.3 65 65 Calm 30.15 1021 10 16 0.00 0.00
9:15 am 09:15 Sunny 69 20.8 55 12.5 59 59 SW 7 11 30.15 1021 10 16 0.00 0.00
9:35 am 09:35 Sunny 69 20.8 53 11.5 55 55 SW 10 17 30.15 1021 10 16 0.00 0.00
9:55 am 09:55 Sunny 70 21 51 10.8 52 52 SW 10 17 30.15 1021 10 16 0.00 0.00
10:15 am 10:15 Sunny 74 23.5 54 12.3 50 50 SSW 10 17 30.15 1021 10 16 0.00 0.00
10:35 am 10:35 Sunny 74 23.6 51 10.4 43 43 SW 10 17 30.15 1021 10 16 0.00 0.00
10:55 am 10:55 Partly Cloudy 74 23.6 50 10.1 43 43 SW 15 24 30.15 1021 10 16 0.00 0.00
11:15 am 11:15 Partly Cloudy 77 25 52 10.9 41 41 SW 13 20 30.15 1021 10 16 0.00 0.00
11:35 am 11:35 Mostly Cloudy 77 25.1 51 10.4 40 40 WSW 13 20 30.15 1021 10 16 0.00 0.00
11:55 am 11:55 Mostly Cloudy 77 25.1 50 10.2 39 39 SW 12 19 30.18 1022 10 16 0.00 0.00
12:15 pm 12:15 Partly Cloudy 80 26.5 51 10.4 36 36 W 12 19 30.18 1022 10 16 0.00 0.00
12:35 pm 12:35 Partly Cloudy 80 26.5 51 10.3 36 36 SW 15 24 30.15 1021 10 16 0.00 0.00
12:55 pm 12:55 Mostly Cloudy 77 25.1 49 9.3 37 37 WSW 18 30 30.18 1022 10 16 0.00 0.00
1:15 pm 13:15 Mostly Cloudy 78 25.3 50 9.8 38 38 W 13 20 30.18 1022 10 16 0.00 0.00
1:35 pm 13:35 Mostly Cloudy 80 26.5 50 10.1 36 36 W 12 19 30.15 1021 10 16 0.00 0.00
1:55 pm 13:55 Mostly Cloudy 77 25.1 51 10.5 40 40 W 10 17 30.15 1021 10 16 0.00 0.00
2:15 pm 14:15 Partly Cloudy 79 26 52 11.3 40 40 W 13 20 30.15 1021 10 16 0.00 0.00
2:35 pm 14:35 Sunny 77 25.1 53 11.7 43 43 W 7 11 30.15 1021 10 16 0.00 0.00
2:55 pm 14:55 Mostly Cloudy 77 25.1 53 11.6 43 43 WSW 8 13 30.15 1021 10 16 0.00 0.00
3:15 pm 15:15 Mostly Cloudy 77 25.1 54 12.3 45 45 WSW 9 15 30.15 1021 10 16 0.00 0.00
3:35 pm 15:35 Mostly Cloudy with Light Rain 77 25.1 55 12.5 46 46 WSW 8 13 30.15 1021 10 16 0.00 0.00
3:55 pm 15:55 Cloudy with Drizzle 77 24.8 56 13.1 48 48 WSW 9 15 30.15 1021 10 16 0.00 0.00
4:15 pm 16:15 Partly Cloudy 77 25.1 54 12.4 45 45 SW 6 9 30.15 1021 10 16 0.00 0.00
4:35 pm 16:35 Mostly Cloudy 76 24.7 57 13.8 51 51 WSW 7 11 30.15 1021 10 16 0.00 0.00
4:55 pm 16:55 Cloudy 77 25.1 57 14 50 50 WSW 5 7 30.15 1021 10 16 0.00 0.00
5:15 pm 17:15 Mostly Cloudy 77 25.1 58 14.2 51 51 W 6 9 30.15 1021 10 16 0.00 0.00
5:35 pm 17:35 Mostly Cloudy 80 26.4 57 13.7 46 46 SW 7 11 30.15 1021 10 16 0.00 0.00
5:55 pm 17:55 Partly Cloudy 77 25.1 54 12.3 45 45 SW 7 11 30.15 1021 10 16 0.00 0.00
6:15 pm 18:15 Partly Cloudy 77 25.1 57 13.8 50 50 SW 6 9 30.15 1021 10 16 0.00 0.00
6:35 pm 18:35 Mostly Cloudy 77 25.1 56 13.2 48 48 WSW 6 9 30.15 1021 10 16 0.00 0.00
6:55 pm 18:55 Mostly Cloudy 80 26.5 56 13.4 44 44 WSW 3 6 30.15 1021 10 16 0.00 0.00
7:15 pm 19:15 Mostly Cloudy 77 25.1 55 12.9 47 47 W 6 9 30.15 1021 10 16 0.00 0.00
7:35 pm 19:35 Cloudy 77 25.1 57 14 50 50 W 5 7 30.15 1021 10 16 0.00 0.00
7:55 pm 19:55 Mostly Cloudy 74 23.6 56 13.3 53 53 Calm 30.15 1021 10 16 0.00 0.00
8:15 pm 20:15 Partly Cloudy 74 23.6 58 14.5 57 57 Calm 30.15 1021 10 16 0.00 0.00
8:35 pm 20:35 Clear 74 23.6 62 16.4 64 64 Calm 30.15 1021 10 16 0.00 0.00
8:55 pm 20:55 Clear 69 20.8 60 15.6 72 72 Calm 30.15 1021 10 16 0.00 0.00
9:15 pm 21:15 Clear 69 20.8 63 17.1 79 79 Calm 30.15 1021 10 16 0.00 0.00
9:35 pm 21:35 Clear 67 19.7 61 16.2 80 80 N 3 6 30.15 1021 10 16 0.00 0.00
9:55 pm 21:55 Clear 67 19.4 61 16 81 81 Calm 30.15 1021 10 16 0.00 0.00
10:15 pm 22:15 Clear 64 17.8 59 14.8 83 83 N 3 6 30.15 1021 10 16 0.00 0.00
10:35 pm 22:35 Mostly Cloudy 63 17.2 58 14.2 83 83 Calm 30.21 1023 10 16 0.00 0.00
10:55 pm 22:55 Mostly Cloudy 62 16.8 57 14.1 84 84 Calm 30.21 1023 10 16 0.00 0.00
11:15 pm 23:15 Cloudy 63 17 57 14.1 83 83 Calm 30.21 1023 10 16 0.00 0.00
11:35 pm 23:35 Cloudy 69 20.8 59 14.9 69 69 NNW 8 13 30.21 1023 10 16 0.00 0.00
11:55 pm 23:55 Cloudy with Light Rain 67 19.6 60 15.7 78 78 N 7 11 30.21 1023 10 16 0.00 0.00

Powered by AerisWeather